Regional Weather Roundup
Issued by NWS Goodland, KS

Home | Current Version | Previous Version | Graphics & Text | Print | Product List | Glossary On
Versions: 1 2 3 4 5 6 7 8 9 10 11 12 13 14 15 16 17 18 19 20 21 22 23 24 25 26 27 28 29 30 31 32 33 34 35 36 37 38 39 40 41 42 43 44 45 46 47 48 49 50
000
ASUS43 KGLD 022159
RWRGLD

GOODLAND FORECAST AREA HOURLY WEATHER ROUNDUP
NATIONAL WEATHER SERVICE GOODLAND KS
400 PM MDT TUE SEP 02 2014

...OFFICIAL OBSERVATIONS...

CITY           SKY/WX    TMP DP  RH WIND       PRES   REMARKS
GOODLAND KS    SUNNY     84  60  44 SE21G28   29.98F
HILL CITY KS   SUNNY     85  64  49 S16G25    29.95F
IMPERIAL NEB   SUNNY     86  53  32 S16G24    29.94F
MCCOOK NEB     LGT RAIN  88  55  32 S18G25    29.94F
AKRON CO       SUNNY     84  47  27 S12G18    29.98F
BURLINGTON CO  MOSUNNY   86  52  30 S21G29    30.00F
LIMON CO       SUNNY     81  50  33 S10       30.05F
$$

...UNOFFICIAL OBSERVATIONS...

CITY           SKY/WX    TMP DP  RH WIND       PRES   REMARKS
COLBY KS       MOSUNNY   84  63  48 SE17G23   29.98F
NORTON KS      SUNNY     88  50  27 S15G22    29.94F
SHARON SPRINGS   N/A     86  61  43 N15G22      N/A
TRIBUNE KS       N/A    N/A N/A N/A MISG        N/A
WAKEENEY KS      N/A     82  61  49 MISG        N/A
KIT CARSON CO    N/A     85  55  35 N12G22      N/A
YUMA CO          N/A     82  55  38 S13G26      N/A
$$



USA.gov is the U.S. government's official web portal to all federal, state and local government web resources and services.